Tracking 19484 objects as of 20-Jan-2019
HD Live streaming from Space Station
objects crossing your sky now

BS-3N

Track BS-3N now!
BS-3N is classified as:


NORAD ID: 23176
Int'l Code: 1994-040B
Perigee: 36,072.9 km
Apogee: 36,150.4 km
Inclination: 10.4 °
Period: 1,452.4 minutes
Semi major axis: 42482 km
RCS: 15.8489 m2 (large)
Launch date: July 8, 1994
Source: Japan (JPN)
Launch site: FRENCH GUIANA (FRGUI)

BS-3N was a Japanese geostationary communications satellite. It is designed to serve the Pacific region countries.
aabbcc
Your satellite tracking list
Your tracking list is empty




NASA's NSSDC Master Catalog

Two Line Element Set (TLE):
1 23176U 94040B   19019.63277428  .00000070  00000-0  00000+0 0  9991
2 23176  10.3544  38.1395 0009118 294.4684  65.4879  0.99148356 89363
Source of the keplerian elements: AFSPC